User: anonymous   Login
Location: Caltech
(34.1382°N, 118.1253°W)
Time: 12:48:07
(UTC-07:00)
Language:

GPS 2-04 Rocket1 - Orbit

View from above orbital plane
View from above orbital plane
View from above satellite
View from above satellite

Ground track
Ground track

The orbit data is extracted from the following two-line orbital elements,

1 20303U 89085B   15116.76128270  .00011417  00000-0  47759-3 0  9994
2 20303 035.6304 224.0560 0125034 126.4636 005.4275 15.15942022381391
Epoch (UTC): 26 April 2015 18:16:14
Eccentricity: 0.0125034
inclination: 35.6304°
perigee height: 432 km
apogee height: 604 km
right ascension of ascending node: 224.0560°
argument of perigee: 126.4636°
revolutions per day: 15.15942022
mean anomaly at epoch: 5.4275°
orbit number at epoch: 38139

The dashed part of the orbit path shows where the satellite is in the earth's shadow,  

DLR